TimeIST,TemperatureF,Dew PointF,Humidity,Sea Level PressureIn,VisibilityMPH,Wind Direction,Wind SpeedMPH,Gust SpeedMPH,PrecipitationIn,Events,Conditions,WindDirDegrees,DateUTC
12:00 AM,80.6,75.2,84,29.80,1.4,SSE,5.8,-,N/A,,Mostly Cloudy,150,2013-10-06 18:30:00
12:30 AM,80.6,75.2,84,29.83,1.4,SSE,5.8,-,N/A,,Mostly Cloudy,150,2013-10-06 19:00:00
1:00 AM,78.8,75.2,89,29.83,1.4,ESE,3.5,-,N/A,,Mostly Cloudy,120,2013-10-06 19:30:00
1:30 AM,78.8,75.2,89,29.83,1.4,SE,5.8,-,N/A,,Mostly Cloudy,130,2013-10-06 20:00:00
2:00 AM,78.8,75.2,89,29.83,1.4,SE,5.8,-,N/A,,Mostly Cloudy,140,2013-10-06 20:30:00
2:30 AM,78.8,75.2,89,29.83,1.2,SE,5.8,-,N/A,,Mostly Cloudy,130,2013-10-06 21:00:00
3:00 AM,78.8,75.2,89,29.83,1.2,ESE,5.8,-,N/A,,Mostly Cloudy,120,2013-10-06 21:30:00
3:30 AM,78.8,75.2,89,29.83,1.2,ESE,2.3,-,N/A,,Mostly Cloudy,120,2013-10-06 22:00:00
4:00 AM,78.8,75.2,89,29.83,1.2,Calm,Calm,-,N/A,,Mostly Cloudy,0,2013-10-06 22:30:00
4:30 AM,78.8,75.2,89,29.83,1.2,Calm,Calm,-,N/A,,Mostly Cloudy,0,2013-10-06 23:00:00
5:00 AM,78.8,75.2,89,29.83,1.2,Calm,Calm,-,N/A,,Mostly Cloudy,0,2013-10-06 23:30:00
5:30 AM,78.8,75.2,89,29.83,1.2,Calm,Calm,-,N/A,,Mostly Cloudy,0,2013-10-07 00:00:00
6:00 AM,78.8,75.2,89,29.86,1.2,ESE,3.5,-,N/A,,Mostly Cloudy,120,2013-10-07 00:30:00
6:30 AM,78.8,75.2,89,29.86,1.0,ESE,3.5,-,N/A,,Mostly Cloudy,120,2013-10-07 01:00:00
7:00 AM,78.8,75.2,89,29.86,1.0,SE,3.5,-,N/A,,Mostly Cloudy,130,2013-10-07 01:30:00
8:00 AM,80.6,75.2,84,29.89,1.4,SE,3.5,-,N/A,,Mostly Cloudy,140,2013-10-07 02:30:00
8:30 AM,82.4,75.2,79,29.89,1.4,SE,5.8,-,N/A,,Mostly Cloudy,130,2013-10-07 03:00:00
9:00 AM,84.2,75.2,74,29.89,1.4,SSE,5.8,-,N/A,,Mostly Cloudy,150,2013-10-07 03:30:00
9:30 AM,84.2,75.2,74,29.89,1.4,SSE,5.8,-,N/A,,Scattered Clouds,160,2013-10-07 04:00:00
10:00 AM,86.0,75.2,70,29.89,1.4,SE,5.8,-,N/A,,Scattered Clouds,130,2013-10-07 04:30:00
10:30 AM,87.8,75.2,66,29.89,1.4,SE,3.5,-,N/A,,Haze,130,2013-10-07 05:00:00
11:00 AM,87.8,73.4,62,29.89,1.4,East,3.5,-,N/A,,Haze,100,2013-10-07 05:30:00
11:30 AM,87.8,73.4,62,29.86,1.4,SE,3.5,-,N/A,,Haze,130,2013-10-07 06:00:00
12:00 PM,89.6,73.4,59,29.86,1.6,ESE,6.9,-,N/A,,Haze,110,2013-10-07 06:30:00
12:30 PM,89.6,73.4,59,29.86,1.6,SE,5.8,-,N/A,,Haze,130,2013-10-07 07:00:00
1:00 PM,91.4,71.6,52,29.83,1.4,East,4.6,-,N/A,,Haze,90,2013-10-07 07:30:00
1:30 PM,91.4,71.6,52,29.80,1.4,East,4.6,-,N/A,,Haze,90,2013-10-07 08:00:00
2:00 PM,91.4,71.6,52,29.80,1.4,East,5.8,-,N/A,,Haze,90,2013-10-07 08:30:00
2:30 PM,89.6,73.4,59,29.80,1.4,East,5.8,-,N/A,,Haze,90,2013-10-07 09:00:00
3:00 PM,91.4,73.4,55,29.80,1.4,East,5.8,-,N/A,,Haze,100,2013-10-07 09:30:00
3:30 PM,91.4,71.6,52,29.77,1.1,East,4.6,-,N/A,,Haze,80,2013-10-07 10:00:00
4:00 PM,89.6,71.6,55,29.77,1.0,Variable,3.5,-,N/A,,Haze,0,2013-10-07 10:30:00
5:00 PM,89.6,73.4,59,29.77,0.9,ENE,6.9,-,N/A,,Haze,70,2013-10-07 11:30:00
5:30 PM,87.8,73.4,62,29.77,0.9,ENE,4.6,-,N/A,,Haze,70,2013-10-07 12:00:00
6:00 PM,86.0,73.4,66,29.77,0.9,ENE,3.5,-,N/A,,Haze,70,2013-10-07 12:30:00
6:30 PM,86.0,73.4,66,29.77,0.9,East,3.5,-,N/A,,Haze,90,2013-10-07 13:00:00
7:00 PM,84.2,73.4,70,29.80,1.1,East,3.5,-,N/A,,Haze,100,2013-10-07 13:30:00
7:30 PM,84.2,73.4,70,29.80,1.1,East,3.5,-,N/A,,Haze,100,2013-10-07 14:00:00
8:00 PM,84.2,73.4,70,29.83,1.0,ESE,3.5,-,N/A,,Haze,110,2013-10-07 14:30:00
9:00 PM,82.4,73.4,74,29.83,0.9,ESE,4.6,-,N/A,,Haze,120,2013-10-07 15:30:00
9:30 PM,82.4,73.4,74,29.83,0.9,SE,4.6,-,N/A,,Haze,130,2013-10-07 16:00:00
10:00 PM,82.4,73.4,74,29.86,0.9,SE,4.6,-,N/A,,Haze,130,2013-10-07 16:30:00
10:30 PM,82.4,73.4,74,29.86,0.9,ESE,3.5,-,N/A,,Haze,120,2013-10-07 17:00:00
11:00 PM,82.4,73.4,74,29.86,0.9,SE,3.5,-,N/A,,Haze,130,2013-10-07 17:30:00
11:30 PM,82.4,73.4,74,29.86,0.9,SE,3.5,-,N/A,,Haze,130,2013-10-07 18:00:00